Location: ?????????
(38.4921°N, 22.9787°E)
Time: 04:16:48
(UTC+00:00)

Meteor 2-3 Rocket - Pass Details

Date: 08 December 2025
Orbit: 842 x 883 km, 81.2° (Epoch: 21 January)

Event Time Altitude Azimuth Distance (km) Brightness Sun altitude
Rises 03:17:35 0° 174° (S) 3,459 7.1 -25.8°
Reaches altitude 10° 03:20:04 10° 169° (S) 2,521 6.4 -25.3°
Maximum altitude 03:25:37 53° 94° (E) 1,064 4.5 -24.2°
Drops below altitude 10° 03:31:09 10° 19° (NNE) 2,513 6.2 -23.1°
Sets 03:33:37 0° 15° (NNE) 3,448 6.9 -22.7°
